Regional Weather Roundup
Issued by NWS Goodland, KS

Home | Current Version | Previous Version | Text Only | Print | Product List | Glossary On
Versions: 1 2 3 4 5 6 7 8 9 10 11 12 13 14 15 16 17 18 19 20 21 22 23 24 25 26 27 28 29 30 31 32 33 34 35 36 37 38 39 40 41 42 43 44 45 46 47 48 49 50
000
ASUS43 KGLD 241708
RWRGLD

GOODLAND FORECAST AREA HOURLY WEATHER ROUNDUP
NATIONAL WEATHER SERVICE GOODLAND KS
1100 AM MDT FRI MAR 24 2017

...OFFICIAL OBSERVATIONS...

CITY           SKY/WX    TMP DP  RH WIND       PRES   REMARKS
GOODLAND KS    LGT RAIN  40  39  97 N26G35    29.89R FOG
HILL CITY KS   CLOUDY    48  45  89 NE22G36   29.84R FOG
IMPERIAL NEB   CLOUDY    43  40  89 N29G41    29.94R
MCCOOK NEB     LGT RAIN  42  41  96 NE20      29.88R FOG
AKRON CO       LGT RAIN  38  35  89 N35G45    30.02R
BURLINGTON CO  HVY RAIN  39  37  92 N29G36    29.92R FOG
LIMON CO       NOT AVBL
$$

...UNOFFICIAL OBSERVATIONS...

CITY           SKY/WX    TMP DP  RH WIND       PRES   REMARKS
LENORA KS        N/A     43  32  65 N13G20      N/A
NORTON KS      CLOUDY    41  36  81 N29       29.85R
SHARON SPRINGS   N/A     42  40  93 N18G30      N/A
TRENTON NEB      N/A     42  32  68 N17         N/A
KIT CARSON CO    N/A     34  31  90 MISG        N/A
YUMA CO        LGT RAIN  37  36  93 N31G38    29.97R
$$



USA.gov is the U.S. government's official web portal to all federal, state and local government web resources and services.